Location: New Plymouth
(39.0670°S, 174.0830°E)
Time: 16:22:27
(UTC+13:00)

ISS - Pass Details

Date: 08 December 2023
Orbit: 414 x 422 km, 51.6° (Epoch: 26 February)

Event Time Altitude Azimuth Distance (km) Brightness Sun altitude
Exits shadow 02:07:19 - 240° (WSW) 2,162 0.1 -27.1°
Reaches altitude 10° 02:09:48 10° 212° (SSW) 1,568 -0.3 -27.0°
Maximum altitude 02:11:09 12° 189° (S) 1,463 -0.2 -26.9°
Drops below altitude 10° 02:12:29 10° 167° (SSE) 1,563 0.1 -26.9°
Sets 02:15:50 0° 132° (SE) 2,424 1.0 -26.7°
